AUA235 HECA-LOWW

Flight info

Callsign AUA235
Flight time N/A
Altitude 40000
Route HECA/05C MENKU L617 NOZ L551 ANTAR DCT RIGRO DCT EVIVI L863 OKANA DCT PARAK DCT BALUX DCT TORNO DCT NATEX NATEX2W
Aircraft B772/H-SDE2E3FGHIJ5LORVWXY/LB1D1

Departure

Time N/A
Airport Cairo International Airport (HECA)

Arrival

Time 2026-05-06 19:12
Airport Vienna International Airport (LOWW)
Time Latitude Longitude Altitude Speed Heading
2026-05-06 18:33 47.26722 18.98797 16535 ft 345 kts 315°
2026-05-06 18:33 47.28117 18.95990 16328 ft 330 kts 287°
2026-05-06 18:33 47.28481 18.92799 16220 ft 317 kts 270°
2026-05-06 18:33 47.28912 18.89558 16086 ft 333 kts 287°
2026-05-06 18:34 47.29889 18.86409 16001 ft 339 kts 294°
2026-05-06 18:34 47.30644 18.84339 15910 ft 337 kts 295°
2026-05-06 18:37 47.31591 18.81815 15821 ft 334 kts 295°
2026-05-06 18:37 47.32702 18.78813 15787 ft 335 kts 294°
2026-05-06 18:37 47.33797 18.75764 15751 ft 338 kts 294°
2026-05-06 18:38 47.34878 18.72671 15700 ft 340 kts 293°
2026-05-06 18:38 47.35944 18.69560 15652 ft 339 kts 293°
2026-05-06 18:38 47.36996 18.66448 15605 ft 338 kts 292°
2026-05-06 18:38 47.38035 18.63344 15544 ft 337 kts 292°
2026-05-06 18:39 47.39068 18.60238 15490 ft 337 kts 292°
2026-05-06 18:39 47.40096 18.57135 15446 ft 336 kts 292°
2026-05-06 18:39 47.41119 18.54035 15401 ft 336 kts 292°
2026-05-06 18:40 47.43149 18.47868 15304 ft 335 kts 291°
2026-05-06 18:40 47.44167 18.44767 15253 ft 335 kts 292°
2026-05-06 18:40 47.45183 18.41671 15201 ft 335 kts 291°
2026-05-06 18:40 47.46198 18.38572 15153 ft 335 kts 291°
2026-05-06 18:41 47.47212 18.35476 15105 ft 334 kts 291°
2026-05-06 18:41 47.48220 18.32391 15040 ft 331 kts 291°
2026-05-06 18:41 47.49214 18.29350 14989 ft 327 kts 291°
2026-05-06 18:41 47.50200 18.26327 14937 ft 326 kts 291°
2026-05-06 18:42 47.51187 18.23294 14908 ft 327 kts 291°
2026-05-06 18:42 47.52174 18.20260 14867 ft 327 kts 291°
2026-05-06 18:42 47.53148 18.17259 14794 ft 328 kts 291°
2026-05-06 18:42 47.54135 18.14219 14759 ft 328 kts 291°
2026-05-06 18:43 47.55124 18.11167 14716 ft 328 kts 291°
2026-05-06 18:43 47.56111 18.08117 14666 ft 328 kts 291°
2026-05-06 18:43 47.57097 18.05067 14621 ft 328 kts 291°
2026-05-06 18:43 47.58085 18.02007 14511 ft 330 kts 291°
2026-05-06 18:44 47.59078 17.98928 14396 ft 331 kts 291°
2026-05-06 18:44 47.60071 17.95847 14273 ft 331 kts 290°
2026-05-06 18:44 47.61059 17.92778 14159 ft 329 kts 290°
2026-05-06 18:44 47.62031 17.89757 14033 ft 327 kts 290°
2026-05-06 18:45 47.63006 17.86726 13952 ft 323 kts 290°
2026-05-06 18:45 47.63968 17.83732 13901 ft 322 kts 290°
2026-05-06 18:45 47.64931 17.80722 13877 ft 323 kts 290°
2026-05-06 18:45 47.65583 17.78680 13854 ft 323 kts 290°
2026-05-06 18:46 47.66862 17.74675 13651 ft 324 kts 290°
2026-05-06 18:46 47.67825 17.71657 13464 ft 322 kts 290°
2026-05-06 18:46 47.68779 17.68664 13271 ft 320 kts 289°
2026-05-06 18:46 47.69728 17.65685 13094 ft 319 kts 289°
2026-05-06 18:47 47.70675 17.62705 12915 ft 318 kts 289°
2026-05-06 18:47 47.71616 17.59744 12717 ft 317 kts 289°
2026-05-06 18:47 47.72553 17.56790 12543 ft 316 kts 289°
2026-05-06 18:47 47.73487 17.53843 12357 ft 314 kts 289°
2026-05-06 18:48 47.74371 17.50900 12154 ft 304 kts 282°
2026-05-06 18:48 47.74598 17.47864 11983 ft 291 kts 260°
2026-05-06 18:48 47.74361 17.44888 11928 ft 295 kts 261°
2026-05-06 18:48 47.74517 17.41823 11861 ft 307 kts 278°
2026-05-06 18:49 47.75155 17.38757 11840 ft 311 kts 284°
2026-05-06 18:49 47.75892 17.35750 11811 ft 308 kts 285°
2026-05-06 18:49 47.76637 17.32778 11804 ft 305 kts 285°
2026-05-06 18:49 47.77383 17.29820 11739 ft 308 kts 285°
2026-05-06 18:50 47.78140 17.26817 11494 ft 309 kts 285°
2026-05-06 18:50 47.78896 17.23822 11232 ft 308 kts 285°
2026-05-06 18:50 47.79647 17.20861 10988 ft 303 kts 285°
2026-05-06 18:50 47.80435 17.18007 10715 ft 294 kts 294°
2026-05-06 18:51 47.81684 17.15621 10468 ft 296 kts 307°
2026-05-06 18:51 47.83122 17.13434 10221 ft 295 kts 308°
2026-05-06 18:51 47.84540 17.11259 10125 ft 289 kts 308°
2026-05-06 18:51 47.85896 17.09069 10069 ft 287 kts 306°
2026-05-06 18:52 47.87315 17.06892 10038 ft 294 kts 314°
2026-05-06 18:52 47.88928 17.04979 10035 ft 298 kts 318°
2026-05-06 18:52 47.90597 17.03140 10022 ft 297 kts 318°
2026-05-06 18:52 47.92256 17.01314 10015 ft 296 kts 318°
2026-05-06 18:53 47.93903 16.99477 10017 ft 295 kts 317°
2026-05-06 18:53 47.95518 16.97650 10017 ft 294 kts 317°
2026-05-06 18:53 47.97141 16.95794 10016 ft 294 kts 317°
2026-05-06 18:53 47.98762 16.93927 10018 ft 294 kts 317°
2026-05-06 18:54 48.00383 16.92049 10008 ft 295 kts 317°
2026-05-06 18:54 48.02009 16.90161 10012 ft 295 kts 317°
2026-05-06 18:54 48.03632 16.88271 10002 ft 296 kts 317°
2026-05-06 18:54 48.05257 16.86375 9979 ft 297 kts 316°
2026-05-06 18:55 48.06893 16.84463 9791 ft 300 kts 317°
2026-05-06 18:55 48.08537 16.82540 9541 ft 301 kts 317°
2026-05-06 18:55 48.10169 16.80632 9290 ft 299 kts 317°
2026-05-06 18:55 48.11795 16.78729 9015 ft 294 kts 316°
2026-05-06 18:56 48.13367 16.76892 8730 ft 278 kts 316°
2026-05-06 18:56 48.14853 16.75153 8443 ft 264 kts 316°
2026-05-06 18:56 48.16266 16.73493 8175 ft 256 kts 315°
2026-05-06 18:56 48.17660 16.71850 7928 ft 256 kts 315°
2026-05-06 18:57 48.18596 16.70745 7776 ft 259 kts 315°
2026-05-06 18:57 48.20026 16.69058 7542 ft 262 kts 315°
2026-05-06 18:57 48.21453 16.67379 7299 ft 260 kts 315°
2026-05-06 18:57 48.22980 16.65982 7019 ft 260 kts 333°
2026-05-06 18:58 48.24725 16.65182 6698 ft 266 kts 340°
2026-05-06 18:58 48.26552 16.64490 6288 ft 273 kts 340°
2026-05-06 18:58 48.28398 16.63787 6003 ft 272 kts 340°
2026-05-06 18:58 48.30135 16.63098 5988 ft 262 kts 339°
2026-05-06 18:59 48.31906 16.62371 5984 ft 260 kts 339°
2026-05-06 18:59 48.33662 16.61636 5990 ft 259 kts 339°
2026-05-06 18:59 48.35371 16.60919 5970 ft 252 kts 339°
2026-05-06 18:59 48.37026 16.60226 5964 ft 242 kts 339°
2026-05-06 19:00 48.38617 16.59554 5971 ft 239 kts 339°
2026-05-06 19:00 48.40231 16.58869 5993 ft 239 kts 339°
2026-05-06 19:00 48.41833 16.58191 6012 ft 237 kts 339°
2026-05-06 19:00 48.43405 16.57527 5851 ft 230 kts 339°
2026-05-06 19:01 48.44930 16.56883 5494 ft 227 kts 339°
2026-05-06 19:01 48.46462 16.56233 5108 ft 228 kts 339°
2026-05-06 19:01 48.47999 16.55577 5005 ft 233 kts 340°
2026-05-06 19:01 48.49555 16.54918 4977 ft 229 kts 340°
2026-05-06 19:02 48.51069 16.54264 4963 ft 223 kts 335°
2026-05-06 19:02 48.52333 16.53080 4974 ft 212 kts 306°
2026-05-06 19:02 48.53079 16.51205 4970 ft 208 kts 278°
2026-05-06 19:02 48.53006 16.49104 4968 ft 201 kts 244°
2026-05-06 19:03 48.52121 16.47535 4969 ft 200 kts 210°
2026-05-06 19:03 48.50823 16.46832 4987 ft 200 kts 197°
2026-05-06 19:03 48.49456 16.46353 4982 ft 203 kts 195°
2026-05-06 19:03 48.48069 16.45922 4978 ft 204 kts 187°
2026-05-06 19:04 48.46636 16.46009 4972 ft 208 kts 176°
2026-05-06 19:04 48.45195 16.46290 4976 ft 208 kts 175°
2026-05-06 19:04 48.43787 16.46579 4946 ft 199 kts 177°
2026-05-06 19:04 48.42445 16.46774 4967 ft 190 kts 178°
2026-05-06 19:05 48.41136 16.46972 5005 ft 189 kts 178°
2026-05-06 19:05 48.39821 16.47243 4985 ft 191 kts 175°
2026-05-06 19:05 48.38515 16.47538 4986 ft 189 kts 179°
2026-05-06 19:05 48.37226 16.47664 4985 ft 187 kts 178°
2026-05-06 19:06 48.35923 16.47911 4986 ft 190 kts 175°
2026-05-06 19:06 48.34630 16.48282 4977 ft 188 kts 171°
2026-05-06 19:06 48.33364 16.48753 4916 ft 188 kts 169°
2026-05-06 19:06 48.32070 16.49281 4659 ft 190 kts 170°
2026-05-06 19:07 48.30800 16.49816 4429 ft 188 kts 170°
2026-05-06 19:07 48.29577 16.50336 4183 ft 185 kts 170°
2026-05-06 19:07 48.28345 16.50862 3939 ft 182 kts 169°
2026-05-06 19:07 48.27139 16.51374 3702 ft 178 kts 171°
2026-05-06 19:08 48.25956 16.51881 3455 ft 175 kts 172°
2026-05-06 19:08 48.24808 16.52372 3224 ft 166 kts 172°
2026-05-06 19:08 48.23741 16.52828 3016 ft 152 kts 172°
2026-05-06 19:08 48.22787 16.53236 2817 ft 133 kts 173°
2026-05-06 19:09 48.21930 16.53597 2662 ft 128 kts 173°
2026-05-06 19:09 48.21078 16.53957 2488 ft 127 kts 172°
2026-05-06 19:09 48.20228 16.54316 2333 ft 127 kts 171°
2026-05-06 19:09 48.19363 16.54682 2177 ft 132 kts 171°
2026-05-06 19:10 48.18452 16.55068 1984 ft 140 kts 169°
2026-05-06 19:10 48.17518 16.55467 1792 ft 138 kts 168°
2026-05-06 19:10 48.16598 16.55858 1616 ft 136 kts 169°
2026-05-06 19:10 48.15728 16.56226 1401 ft 126 kts 165°
2026-05-06 19:11 48.14872 16.56591 1295 ft 129 kts 167°
2026-05-06 19:11 48.14044 16.56942 1114 ft 118 kts 166°
2026-05-06 19:11 48.13232 16.57284 958 ft 124 kts 165°
2026-05-06 19:11 48.12392 16.57646 750 ft 127 kts 165°
2026-05-06 19:12 48.11559 16.58009 622 ft 125 kts 165°
2026-05-06 19:12 48.10819 16.58308 625 ft 90 kts 165°
2026-05-06 19:12 48.10366 16.58498 622 ft 45 kts 164°
2026-05-06 19:12 48.10148 16.58590 628 ft 30 kts 168°
2026-05-06 19:13 48.09942 16.58611 631 ft 30 kts 183°
2026-05-06 19:13 48.09740 16.58574 629 ft 27 kts 190°
2026-05-06 19:13 48.09644 16.58434 637 ft 22 kts 285°
2026-05-06 19:13 48.09771 16.58333 635 ft 22 kts 344°
2026-05-06 19:14 48.09918 16.58271 628 ft 22 kts 344°
2026-05-06 19:14 48.10066 16.58209 632 ft 23 kts 343°
2026-05-06 19:14 48.10216 16.58141 629 ft 23 kts 343°
2026-05-06 19:14 48.10358 16.58083 630 ft 18 kts 346°
2026-05-06 19:15 48.10422 16.58058 631 ft 0 kts 345°
2026-05-06 19:15 48.10426 16.58056 631 ft 1 kts 345°
2026-05-06 19:15 48.10435 16.58053 630 ft 2 kts 344°
2026-05-06 19:16 48.10451 16.58046 631 ft 3 kts 344°
2026-05-06 19:16 48.10485 16.58032 630 ft 15 kts 344°
2026-05-06 19:16 48.10666 16.57955 631 ft 31 kts 343°
2026-05-06 19:16 48.10840 16.57879 630 ft 25 kts 343°